CAPE
0 0 0 0 4 3 1 3 1 0 1 6 5 3 2 2 3 3 2 2 2 2 1 1 1 2 2 1 2 5 5 5 5 0 0 21 18 163 43 46 61 1 1
0 0 2 0 0 0 0 0 0 2 5 1 2 2 2 2 2 2 2 2 2 2 2 2 1 2 1 0 0 0 1 4 3 1 0 24 26 1 1 1 2 3 1
0 1 0 1 1 0 0 0 1 1 1 1 2 1 2 2 1 1 2 2 1 1 1 1 1 1 1 1 0 0 2 1 2 0 0 0 10 1 1 1 3 3 0
0 0 0 0 0 0 1 0 0 0 0 2 2 2 2 2 2 2 1 2 1 0 0 1 1 1 1 0 0 0 0 1 0 0 0 14 16 2 2 1 2 1 3
0 0 0 0 0 0 0 0 0 0 0 0 1 1 1 1 2 1 2 2 2 2 1 1 1 0 1 1 0 0 2 6 1 1 19 23 0 0 2 1 4 3 1
0 0 0 1 0 2 1 0 0 0 0 0 0 1 1 2 0 0 1 2 1 1 2 1 1 1 1 1 0 0 4 1 0 0 11 43 11 1 3 2 3 3 1
2 5 1 2 2 6 1 0 0 0 0 0 0 0 0 2 0 0 0 1 1 1 1 1 2 1 1 2 1 2 1 1 1 0 2 0 0 0 1 2 1 0 0
3 6 0 0 3 7 1 0 0 0 0 0 0 0 0 0 0 0 0 0 0 0 0 0 0 0 0 1 1 0 1 0 0 1 1 2 1 2 0 0 0 0 1
4 3 2 3 1 0 2 0 0 0 5 0 0 0 0 0 0 0 0 0 0 0 0 0 0 0 0 0 0 0 0 0 0 0 0 0 0 0 0 0 0 0 0
0 0 5 2 0 0 5 0 0 0 0 0 0 0 0 0 0 0 0 0 0 0 0 0 0 0 0 0 4 0 0 0 0 0 0 0 0 0 0 0 0 0 1
0 0 5 0 0 0 0 0 0 0 0 0 1 2 0 0 0 0 0 0 0 1 0 0 0 0 0 0 0 0 0 1 11 2 5 3 1 0 1 0 0 0 0
0 0 1 4 2 3 0 0 0 0 0 0 0 0 0 0 0 0 0 0 0 0 0 0 0 0 0 0 0 0 0 1 0 0 1 5 6 8 6 4 0 0 0
0 6 0 4 0 0 0 0 0 0 0 0 0 0 0 0 0 0 0 0 0 0 0 0 0 0 1 4 4 0 0 0 6 8 10 12 9 3 10 5 8 6 0
1 0 0 0 0 0 0 0 0 0 0 0 0 0 0 0 0 0 0 0 0 1 0 0 1 1 5 6 6 1 0 0 0 2 3 3 2 5 0 0 0 8 0
0 0 0 0 0 0 0 0 0 0 0 0 0 0 0 0 0 0 0 0 0 0 0 2 0 0 0 0 0 0 0 0 0 0 0 0 0 0 0 0 0 0 0
0 0 0 0 0 0 0 0 0 0 0 0 0 0 0 0 0 0 0 0 0 0 0 0 0 0 0 0 0 0 0 0 0 0 0 0 0 0 0 0 0 0 0
0 0 0 0 0 0 0 0 0 0 0 0 0 0 0 0 0 0 0 0 0 0 0 0 1 1 1 1 0 1 1 0 0 0 0 0 0 0 0 0 0 0 0
0 0 0 0 0 0 0 0 0 0 0 0 0 0 0 0 0 0 0 0 0 0 0 1 1 1 1 1 1 1 0 0 0 0 0 0 0 0 0 1 0 0 0
0 0 0 0 0 0 0 0 0 0 0 0 0 0 1 0 1 0 0 0 1 1 1 0 0 0 1 1 1 1 1 1 1 0 0 0 0 0 0 0 0 0 0
0 0 0 0 0 0 0 0 0 0 0 0 0 0 0 0 0 0 0 0 0 0 0 0 0 1 1 1 2 2 1 1 0 1 2 0 0 0 0 0 0 0 0
0 0 0 0 0 0 0 0 0 0 0 0 0 0 0 0 0 0 0 0 0 0 0 0 0 1 2 1 1 1 1 1 1 1 2 1 0 0 0 0 1 0 0
0 0 0 0 0 0 0 0 0 0 0 0 1 0 0 0 0 0 0 1 2 2 1 1 2 2 4 2 2 1 1 1 1 0 1 1 0 0 0 0 0 0 0
0 0 0 0 0 0 0 0 0 0 0 0 4 0 0 0 0 0 0 1 2 3 0 0 2 4 4 3 3 2 2 2 1 1 1 0 0 0 0 0 0 0 0
0 0 0 0 0 0 0 0 0 0 0 3 0 0 0 1 0 0 0 1 1 1 0 2 5 2 2 1 3 2 3 1 0 1 0 1 0 0 0 1 0 0 0
0 0 0 0 0 0 0 0 0 0 1 0 0 0 0 1 0 0 0 2 1 1 3 5 3 3 2 2 2 1 1 0 0 0 0 1 0 0 1 0 0 0 0
0 0 0 0 0 0 0 0 0 1 0 1 0 0 0 0 0 0 0 0 0 3 2 3 3 3 2 2 1 0 0 0 0 0 0 0 0 0 0 0 0 0 0
CIN
-0 -0 -0 -1 -1 -0 -1 -0 -0 -0 -0 -0 -0 -0 -0 -0 -0 -0 -0 -0 -0 -0 -0 -0 -0 -0 -0 -0 -0 -0 -0 -0 -0 -0 -0 -75 -73 -6 -98 -94 -102 -0 -0
-0 -0 -0 -0 -1 -0 -1 -0 -0 -0 -0 -0 -0 -0 -0 -0 -0 -0 -0 -0 -0 -0 -0 -0 -0 -0 -0 -0 -0 -0 -0 -0 -0 -0 -9 -88 -11 -0 -9 -0 -0 -0 -0
-0 -0 -0 -3 -1 -0 -0 -0 -0 -0 -0 -0 -0 -0 -0 -0 -0 -0 -0 -0 -0 -0 -0 -0 -0 -0 -0 -0 -0 -0 -0 -0 -1 -0 -0 -0 -10 -0 -0 -0 -0 -0 -0
-0 -1 -0 -0 -0 -0 -0 -0 -0 -0 -0 -0 -0 -0 -0 -0 -0 -0 -0 -0 -0 -0 -0 -0 -0 -0 -0 -0 -0 -0 -0 -0 -3 -0 -0 -6 -5 -0 -0 -0 -0 -0 -0
-0 -0 -1 -0 -0 -0 -0 -0 -0 -0 -0 -0 -0 -0 -0 -0 -0 -0 -0 -0 -0 -0 -0 -0 -0 -0 -0 -0 -0 -0 -0 -0 -0 -0 -1 -2 -6 -0 -0 -0 -0 -0 -0
-3 -0 -5 -11 -25 -16 -8 -1 -0 -0 -0 -0 -0 -0 -0 -0 -0 -0 -0 -0 -0 -0 -0 -0 -0 -0 -0 -0 -0 -0 -0 -0 -0 -0 -5 -1 -7 -0 -0 -0 -0 -0 -0
-12 -4 -2 -5 -7 -3 -3 -0 -0 -0 -0 -0 -0 -0 -0 -0 -0 -0 -0 -0 -0 -0 -0 -0 -0 -0 -0 -0 -0 -0 -0 -0 -0 -0 -1 -0 -0 -0 -0 -0 -0 -0 -0
-2 -3 -0 -4 -6 -3 -2 -0 -0 -0 -0 -0 -0 -0 -0 -0 -0 -0 -0 -0 -0 -0 -0 -0 -0 -0 -0 -0 -0 -0 -0 -0 -0 -0 -0 -0 -0 -0 -0 -0 -0 -0 -0
-2 -2 -1 -2 -2 -0 -2 -0 -0 -0 -7 -0 -0 -0 -0 -0 -0 -0 -0 -0 -0 -0 -0 -0 -0 -0 -0 -0 -0 -0 -0 -0 -0 -0 -0 -0 -0 -0 -0 -0 -0 -0 -0
-0 -0 -1 -3 -0 -0 -1 -0 -0 -0 -0 -0 -5 -0 -0 -0 -0 -0 -0 -0 -0 -0 -0 -0 -0 -0 -0 -0 -3 -1 -0 -0 -0 -0 -0 -0 -0 -0 -0 -0 -0 -6 -2
-0 -0 -3 -1 -0 -0 -0 -0 -0 -0 -0 -0 -6 -5 -0 -0 -0 -0 -0 -0 -0 -2 -0 -0 -0 -0 -0 -0 -0 -0 -0 -13 -11 -8 -5 -4 -5 -0 -4 -2 -0 -0 -0
-0 -0 -6 -5 -2 -5 -0 -0 -0 -0 -0 -0 -0 -0 -0 -0 -0 -0 -0 -0 -0 -0 -0 -0 -0 -0 -0 -0 -0 -0 -0 -4 -1 -12 -12 -8 -9 -8 -11 -11 -0 -0 -0
-0 -1 -0 -5 -0 -0 -0 -0 -0 -0 -0 -0 -0 -0 -0 -0 -0 -0 -0 -0 -0 -0 -8 -0 -0 -16 -15 -9 -14 -0 -0 -7 -8 -5 -7 -4 -5 -13 -4 -11 -15 -12 -0
-1 -2 -0 -0 -0 -0 -0 -0 -0 -0 -0 -0 -0 -0 -0 -0 -0 -0 -0 -0 -0 -9 -0 -28 -19 -11 -6 -6 -5 -19 -0 -0 -0 -9 -8 -9 -13 -4 -0 -0 -0 -3 -2
-0 -0 -0 -0 -0 -0 -0 -0 -0 -0 -0 -0 -0 -0 -0 -0 -0 -0 -0 -0 -0 -0 -4 -12 -4 -3 -0 -0 -0 -0 -0 -0 -0 -0 -0 -0 -0 -0 -0 -0 -0 -0 -1
-0 -0 -0 -0 -0 -0 -0 -0 -0 -0 -0 -0 -0 -0 -0 -0 -0 -0 -0 -0 -0 -0 -0 -0 -0 -0 -0 -0 -0 -0 -0 -0 -0 -0 -0 -0 -0 -1 -0 -0 -0 -0 -0
-0 -0 -0 -0 -0 -0 -0 -0 -0 -0 -0 -0 -0 -0 -0 -0 -0 -0 -0 -0 -0 -0 -0 -0 -0 -0 -0 -0 -0 -0 -0 -0 -0 -0 -0 -0 -0 -0 -1 -0 -1 -0 -1
-0 -0 -0 -0 -0 -0 -0 -0 -0 -0 -0 -0 -0 -0 -0 -0 -0 -0 -0 -0 -0 -0 -0 -0 -0 -0 -0 -0 -0 -0 -0 -0 -0 -0 -0 -0 -0 -0 -0 -0 -0 -0 -0
-0 -0 -0 -0 -0 -0 -0 -0 -0 -0 -0 -0 -0 -0 -2 -1 -2 -1 -0 -0 -0 -0 -0 -0 -0 -0 -0 -0 -0 -0 -0 -0 -0 -0 -0 -0 -0 -0 -0 -0 -0 -0 -0
-0 -0 -0 -0 -0 -0 -0 -0 -0 -0 -0 -0 -0 -0 -0 -3 -1 -0 -0 -0 -0 -0 -0 -0 -0 -0 -0 -0 -0 -0 -0 -0 -0 -0 -0 -0 -0 -0 -0 -0 -0 -0 -0
-0 -0 -0 -0 -0 -0 -0 -0 -0 -0 -0 -0 -0 -0 -0 -0 -1 -0 -0 -0 -0 -0 -2 -0 -0 -0 -0 -0 -0 -0 -0 -0 -0 -0 -0 -0 -0 -0 -0 -0 -0 -0 -0
-0 -0 -0 -0 -0 -0 -0 -0 -0 -0 -0 -0 -1 -0 -0 -0 -1 -0 -0 -2 -2 -2 -1 -0 -0 -0 -0 -0 -0 -0 -0 -0 -0 -0 -0 -0 -0 -0 -0 -0 -0 -0 -0
-0 -0 -0 -0 -0 -0 -0 -0 -0 -0 -0 -0 -4 -0 -0 -0 -0 -1 -1 -1 -3 -0 -0 -0 -0 -0 -0 -0 -0 -0 -0 -0 -0 -0 -0 -0 -0 -0 -0 -0 -0 -0 -0
-0 -0 -0 -0 -0 -0 -0 -0 -0 -0 -0 -2 -0 -0 -0 -0 -0 -0 -2 -0 -0 -0 -0 -0 -0 -0 -1 -0 -0 -0 -0 -0 -0 -0 -0 -0 -0 -0 -0 -0 -0 -0 -0
-0 -0 -0 -0 -0 -0 -0 -0 -0 -0 -1 -0 -0 -0 -0 -0 -0 -9 -5 -1 -0 -0 -0 -0 -0 -0 -0 -0 -0 -0 -0 -0 -0 -0 -0 -0 -0 -0 -0 -0 -0 -0 -0
-0 -0 -0 -0 -0 -0 -0 -0 -0 -1 -0 -0 -0 -0 -1 -1 -6 -4 -0 -0 -0 -0 -0 -0 -0 -0 -0 -0 -0 -0 -0 -0 -0 -0 -0 -0 -0 -0 -0 -0 -0 -0 -0
Wind_Speed
39 41 41 42 41 41 41 41 41 39 39 38 39 41 43 38 37 33 25 20 20 17 14 10 10 8 8 7 32 32 34 32 34 46 37 33 33 27 22 19 14 12 12
40 39 40 39 40 39 39 38 37 33 30 32 37 39 38 34 32 27 20 22 20 14 11 6 4 3 5 13 17 20 23 31 33 35 35 33 27 25 18 17 15 14 13
38 38 38 38 37 37 36 34 37 38 37 33 31 32 30 29 25 19 22 14 13 12 2 4 9 12 14 14 13 12 12 16 26 32 33 30 22 21 17 16 15 13 14
35 36 36 36 35 33 33 35 36 37 38 34 26 12 11 19 13 20 12 24 9 5 3 9 12 14 14 15 16 16 16 18 21 25 29 30 21 18 16 14 15 15 14
34 34 33 33 30 32 34 34 33 35 38 39 38 32 20 13 12 24 18 12 21 23 18 10 11 13 15 16 17 17 17 17 18 20 25 26 18 18 18 16 15 13 15
31 33 31 30 29 31 30 31 30 34 37 40 27 18 19 13 20 21 14 6 6 11 14 13 11 13 14 16 18 18 18 18 19 20 20 19 7 19 16 11 9 13 18
29 31 31 29 31 32 31 31 33 32 34 30 16 13 15 11 18 15 12 6 7 10 10 12 12 13 13 15 16 15 16 17 19 12 8 16 14 15 12 11 12 13 16
30 30 30 30 32 33 34 33 33 15 20 26 11 8 11 11 19 14 8 8 6 10 13 15 20 21 22 21 21 20 20 19 18 16 15 15 15 14 15 14 12 14 14
30 31 31 32 33 33 33 35 25 17 5 8 5 4 11 19 20 9 7 10 17 8 9 17 20 23 23 25 25 24 23 22 22 21 18 18 16 15 14 12 13 13 17
31 30 28 31 32 31 32 26 21 15 9 6 13 28 32 22 20 22 10 19 28 20 18 15 18 21 19 23 23 23 23 22 21 21 20 19 19 18 17 18 16 14 14
29 27 25 30 30 22 29 29 15 14 8 10 7 22 31 25 21 22 21 5 2 3 8 15 15 24 26 25 25 23 21 20 19 20 19 19 19 19 18 17 16 15 13
26 22 28 27 26 27 27 25 21 13 14 10 19 15 19 18 17 17 19 20 4 5 28 28 25 24 25 26 25 25 23 22 20 20 19 19 20 19 19 18 17 16 16
25 25 29 27 19 21 21 24 26 27 28 23 18 21 13 13 13 14 14 12 9 8 12 27 27 28 26 26 25 25 24 22 21 20 20 21 21 21 19 19 18 17 17
27 24 14 23 15 22 22 26 29 30 28 24 15 16 14 13 16 12 11 15 19 29 29 29 28 28 28 27 27 26 25 24 23 23 23 23 22 22 21 21 20 17 16
27 21 23 15 14 18 25 17 15 4 3 5 10 13 17 16 18 27 31 31 31 31 30 30 30 30 30 30 29 28 28 27 26 26 25 24 23 23 23 22 21 20 17
26 20 8 16 14 15 7 7 7 13 9 10 3 28 28 29 27 29 32 33 33 33 31 31 32 31 31 31 31 30 29 28 27 26 25 24 24 23 23 22 21 20 18
27 13 14 16 14 12 12 12 12 10 10 11 18 31 34 32 33 32 33 31 34 33 32 32 32 32 32 32 31 31 30 29 28 26 25 24 24 23 23 22 21 19 18
27 26 13 13 15 16 18 18 18 19 27 30 22 26 31 32 33 35 35 32 33 34 33 33 33 32 32 29 27 26 27 28 28 27 25 24 23 22 22 21 20 17 17
22 27 17 14 17 19 22 24 23 23 28 29 31 28 30 33 31 32 34 33 33 33 33 32 29 26 28 27 27 27 27 26 25 25 25 24 22 21 20 19 17 16 17
22 24 25 19 21 20 25 27 28 28 29 30 30 33 33 30 32 33 34 34 33 32 31 28 25 27 24 24 22 22 23 25 25 26 25 23 21 19 18 17 15 15 14
24 26 25 22 21 22 25 27 27 29 30 31 29 31 33 32 32 33 33 33 31 28 23 19 24 27 25 23 19 18 17 20 24 18 23 21 17 16 15 14 12 12 11
24 24 25 23 24 23 26 28 29 29 30 31 29 31 35 32 33 33 33 32 29 24 22 26 28 25 25 19 16 14 13 10 7 7 10 13 13 13 12 11 11 10 11
25 26 25 24 23 25 26 28 29 30 30 31 31 33 33 33 32 33 32 31 23 24 30 31 29 25 25 16 10 8 6 6 6 8 10 11 12 13 13 12 12 11 10
24 25 25 24 23 25 26 27 29 30 30 31 32 32 32 31 33 33 31 25 18 28 30 28 27 25 20 9 6 4 5 6 9 11 13 13 15 16 14 13 13 12 10
24 25 25 24 25 26 27 27 28 28 29 31 32 32 32 32 32 32 24 19 33 32 26 27 26 19 13 2 3 4 7 7 11 13 15 18 18 15 14 13 12 12 8
24 25 24 23 24 27 28 27 26 27 29 31 32 32 32 32 31 26 20 37 34 25 24 19 16 10 6 3 3 3 4 6 12 16 17 17 15 13 13 12 11 9 9
Wind_Direction
343 343 343 343 344 344 343 343 343 343 341 341 339 336 331 338 336 338 339 334 330 323 322 312 306 307 306 298 288 284 281 281 273 252 269 281 290 298 313 322 334 336 333
345 347 347 348 348 348 348 349 350 357 0 357 350 346 345 349 349 350 350 346 340 327 328 319 280 321 220 212 210 216 223 252 264 263 266 274 286 302 323 321 327 335 336
349 350 351 352 354 355 355 358 356 356 358 2 3 1 2 2 3 4 0 355 0 5 52 202 208 200 199 189 177 181 181 193 224 246 256 266 283 293 315 324 324 329 330
354 355 356 357 0 4 7 2 2 4 4 9 16 8 1 18 17 20 21 8 303 65 143 207 199 191 187 185 187 191 202 199 208 218 226 229 278 297 303 316 317 319 322
359 359 0 1 5 4 8 9 12 12 9 7 7 327 29 316 1 319 25 343 316 316 303 236 191 189 188 190 188 195 203 204 221 233 214 230 285 295 300 310 315 320 319
3 2 1 4 7 6 9 13 21 18 15 359 333 329 327 328 326 330 329 57 337 316 321 305 277 272 236 195 190 192 201 207 214 221 230 206 347 297 311 326 335 323 314
6 6 6 10 2 5 7 12 11 19 21 339 334 345 339 358 341 342 345 23 10 352 343 340 334 328 326 349 17 3 337 327 320 230 20 325 327 324 328 328 328 326 320
10 9 13 8 358 357 346 2 351 45 44 22 328 28 348 355 348 351 21 63 34 358 359 358 4 7 11 16 24 23 16 6 356 359 356 345 340 336 330 330 337 331 337
12 13 12 354 353 350 358 356 314 299 282 67 311 348 337 341 346 359 20 75 83 72 356 354 359 7 11 21 28 28 25 24 24 22 19 18 10 7 4 5 353 344 316
14 14 17 357 356 338 344 324 313 298 285 279 67 35 17 337 339 344 336 75 3 348 348 346 353 357 354 359 7 14 22 24 20 22 22 18 12 8 353 337 328 318 322
21 20 23 5 358 314 338 341 311 304 293 296 303 55 10 340 329 335 336 323 320 107 8 334 332 355 2 359 358 350 0 11 25 13 7 7 359 354 346 345 337 333 346
27 33 17 17 17 354 347 340 331 318 315 304 325 311 327 325 321 321 328 331 274 287 32 17 348 341 349 352 354 354 354 358 3 359 354 343 347 349 345 346 345 356 359
30 33 21 21 316 334 332 342 343 346 351 335 323 331 311 315 319 319 315 322 326 114 85 358 0 355 355 354 348 349 349 345 342 344 339 343 348 347 356 350 0 8 2
32 39 354 336 310 338 338 352 8 1 357 346 327 326 320 318 321 317 317 319 330 7 2 356 356 0 2 357 356 355 348 344 341 339 339 342 344 349 350 344 352 1 7
33 47 357 309 308 329 17 43 55 118 85 347 339 329 325 320 325 349 354 355 0 6 12 12 5 2 360 356 355 353 352 348 345 344 344 344 347 347 350 350 346 348 4
37 54 282 314 307 319 293 142 142 103 109 99 87 355 354 352 343 348 0 3 2 8 14 13 10 8 5 3 360 357 354 352 349 347 347 345 341 343 343 346 345 351 0
33 50 298 314 311 307 306 307 309 104 105 93 71 30 15 0 360 0 6 25 17 19 19 16 11 8 6 4 1 358 354 352 347 341 338 336 335 331 335 346 351 355 4
38 9 296 296 313 317 321 319 321 325 1 6 51 38 31 24 24 13 10 18 16 15 15 14 13 14 14 23 28 26 18 8 355 346 339 334 330 327 328 344 354 4 9
48 11 310 305 316 325 335 345 336 332 356 20 13 18 23 19 26 24 20 21 19 18 18 20 27 35 25 21 18 15 12 12 17 14 352 328 324 323 325 330 356 360 14
46 24 340 318 331 324 344 353 358 358 351 359 14 14 21 28 24 21 20 20 19 21 24 29 30 23 23 21 22 20 17 6 5 352 352 344 306 310 312 310 328 349 327
36 20 349 324 332 333 348 353 344 360 7 9 24 27 25 26 23 21 21 21 22 26 32 32 24 19 18 21 26 30 33 24 6 30 319 318 284 289 290 285 305 275 251
32 24 3 334 339 335 345 0 358 353 3 5 20 22 16 24 22 21 21 21 23 28 28 20 16 16 19 28 38 45 55 70 96 121 226 244 245 249 251 254 240 234 222
27 17 355 349 333 351 345 353 360 0 1 8 16 17 21 23 24 22 22 22 28 27 18 16 17 23 24 37 57 73 90 107 142 166 188 204 209 212 208 212 209 208 206
24 13 357 345 338 343 347 348 351 360 0 10 15 20 24 27 25 23 24 28 27 23 22 22 25 27 35 54 93 136 168 170 159 163 171 178 181 181 190 190 192 189 192
13 14 359 350 347 354 352 350 350 353 3 9 16 21 25 27 27 26 31 29 22 23 30 31 32 43 56 88 165 228 242 196 164 163 163 163 165 174 180 181 185 185 197
20 16 1 346 341 354 358 352 346 348 3 9 20 26 29 30 30 34 32 21 26 38 41 48 51 57 69 108 164 225 212 190 158 156 157 160 165 172 175 180 181 188 184